Terminal Aerodrome Forecast
Issued by NWS

Home | Current Version | Previous Version | Text Only | Print | Product List | Glossary On
Versions: 1 2 3 4 5 6 7 8 9 10 11 12 13 14 15 16 17 18 19 20 21 22 23 24
000
FTUS43 KGRR 012300
TAFJXN
TAF
KJXN 012340Z 0200/0224 24008KT P6SM SCT050
     FM020700 23004KT 5SM BR VCSH BKN050
     FM021100 23003KT 2SM BR VCSH BKN015
     FM021500 26007KT P6SM BKN025
     FM021700 28008KT P6SM SCT040=

USA.gov is the U.S. government's official web portal to all federal, state and local government web resources and services.